Location: Cincinnati Observatory Center
(39.1389°N, 84.4225°W)
Time: 05:53:53
(UTC-04:00)

Amateur Radio Satellites - All Passes

Search period start: 30 August 2015 05:23
Search period end: 31 August 2015 05:23
Location: Cincinnati Observatory Center, 39.1389°N, 84.4225°W

Satellite Date Start Highest point End Downlink Frequencies (MHz)
Time Altitude Azimuth
VERMONT LUNAR 30 Aug 05:25:23 05:28:13 39° 157° (SSE) 05:31:02 437.305
STARS 30 Aug 05:35:06 05:37:25 14° 270° (W) 05:39:32 437.465
MOZHAYETS 4 30 Aug 05:43:22 05:47:52 48° 261° (W) 05:52:20
JAS-2 30 Aug 05:43:41 05:50:11 38° 294° (WNW) 05:55:55 435.910
GONETS M04 30 Aug 05:44:59 05:52:15 28° 293° (WNW) 05:59:19
Gurwin Techsat 1B 30 Aug 05:51:12 05:53:13 12° 299° (WNW) 05:54:56 435.225
CUBESAT XI-V 30 Aug 05:55:49 05:58:58 19° 68° (ENE) 06:02:16 437.345
Cosmos 2499 30 Aug 06:01:54 06:10:16 73° 280° (W) 06:19:07 435.465 / 435.565
STRAND 1 30 Aug 06:34:45 06:37:33 15° 64° (ENE) 06:40:34 437.568
O/OREOS (USA 219) 30 Aug 06:35:49 06:40:25 67° 251° (WSW) 06:44:57 437.305
CUTE-I 30 Aug 06:49:13 06:52:20 16° 90° (E) 06:55:43 437.470
HORYU 2 30 Aug 06:50:28 06:53:37 19° 293° (WNW) 06:56:38 437.375
VERMONT LUNAR 30 Aug 07:01:36 07:04:35 70° 353° (N) 07:07:33 437.305
PHONESAT 2.4 30 Aug 07:06:34 07:09:30 27° 152° (SSE) 07:12:27 2401.200-2431.200
AO-7 30 Aug 07:13:38 07:20:52 34° 299° (WNW) 07:27:55 29.400- 29.500
PRISM 30 Aug 07:14:16 07:17:21 21° 69° (ENE) 07:20:30 437.425
YUBILEINY 30 Aug 07:19:13 07:20:19 10° 54° (NE) 07:22:13 435.215
CUBESAT XI-V 30 Aug 07:31:48 07:36:09 40° 263° (W) 07:40:29 437.345
Cubesat XI-IV 30 Aug 07:42:02 07:47:14 53° 100° (E) 07:52:27 437.490
Cosmos 2499 30 Aug 08:00:53 08:05:25 14° 303° (WNW) 08:09:27 435.465 / 435.565
STRAND 1 30 Aug 08:11:13 08:16:17 64° 259° (WSW) 08:21:22 437.568
BRITE-PL 30 Aug 08:14:25 08:18:38 23° 92° (E) 08:23:06 437.365/2234.400
CUTE-I 30 Aug 08:27:39 08:32:53 59° 287° (WNW) 08:38:06 437.470
VERMONT LUNAR 30 Aug 08:38:08 08:41:08 79° 12° (NNE) 08:44:06 437.305
HO-68 30 Aug 08:41:29 08:44:38 14° 87° (E) 08:48:19 435.675
PHONESAT 2.4 30 Aug 08:43:46 08:47:10 89° 344° (NNW) 08:50:35 2401.200-2431.200
PRISM 30 Aug 08:49:03 08:52:38 28° 264° (W) 08:56:11 437.425
GOMX 1 30 Aug 08:52:57 08:57:43 31° 94° (E) 09:02:34 467.674
AIST 1 30 Aug 08:53:19 08:57:14 38° 92° (E) 09:01:13
YUBILEINY 30 Aug 09:10:53 09:19:37 60° 78° (ENE) 09:28:17 435.215
CUTE 1.7 + AOD 2 30 Aug 09:14:36 09:17:09 16° 91° (E) 09:19:51 437.475
DOVE 4 30 Aug 09:16:00 09:20:38 31° 94° (E) 09:25:19 437.250
ISS 30 Aug 09:16:03 09:17:48 14° 130° (SE) 09:19:40 145.825
Cubesat XI-IV 30 Aug 09:23:11 09:26:59 20° 295° (WNW) 09:30:37 437.490
CANX-2 30 Aug 09:27:34 09:31:03 25° 94° (E) 09:34:36 2200.000
Cosmos 2504 30 Aug 09:39:14 09:40:22 10° 54° (NE) 09:42:14 435.465 / 435.565
BRITE-PL 30 Aug 09:52:05 09:57:20 48° 287° (WNW) 10:02:45 437.365/2234.400
SEEDS 30 Aug 09:52:11 09:56:00 34° 97° (E) 09:59:49 437.485
Cosmos 2491 30 Aug 09:55:56 10:04:24 61° 92° (E) 10:12:57 435.465 / 435.565
SO-50 30 Aug 09:56:53 09:59:43 15° 39° (NE) 10:02:41 436.795
VERMONT LUNAR 30 Aug 10:14:45 10:17:25 30° 205° (SSW) 10:20:05 437.305
CINEMA 3 30 Aug 10:15:06 10:20:00 51° 99° (E) 10:24:45 145.822/145.860
COMPASS 1 30 Aug 10:17:03 10:21:07 52° 99° (E) 10:25:09 437.405
CUBEBUG 2 30 Aug 10:18:38 10:22:22 24° 93° (E) 10:26:05 437.445
PHONESAT 2.4 30 Aug 10:21:46 10:25:10 70° 5° (N) 10:28:33 2401.200-2431.200
CUSAT 1 30 Aug 10:23:02 10:26:45 15° 61° (ENE) 10:31:08 437.405
HO-68 30 Aug 10:26:14 10:33:30 87° 105° (ESE) 10:40:43 435.675
ZACube-1 30 Aug 10:27:30 10:30:14 16° 90° (E) 10:33:07 437.345
AAUSAT CUBESAT 2 30 Aug 10:28:53 10:32:59 60° 100° (E) 10:37:03 437.432
UWE-3 30 Aug 10:29:33 10:33:11 23° 93° (E) 10:36:50 435.000/436.395/437.385
GOMX 1 30 Aug 10:30:54 10:35:48 34° 290° (WNW) 10:40:40 467.674
AIST 1 30 Aug 10:32:29 10:35:08 15° 290° (WNW) 10:37:36
FUNcube-1 30 Aug 10:33:31 10:36:33 18° 91° (E) 10:39:42 145.935
DANDE 30 Aug 10:37:56 10:40:42 13° 61° (ENE) 10:44:12 436.750
UNISAT 6 30 Aug 10:41:07 10:45:11 31° 70° (ENE) 10:49:21 437.425
POPSAT HIP 1 30 Aug 10:43:01 10:43:01 10° 64° (ENE) 10:43:16 437.405
DUCHIFAT 1 30 Aug 10:44:55 10:45:08 10° 64° (ENE) 10:45:36 145.980
CUTE 1.7 + AOD 2 30 Aug 10:49:19 10:53:16 39° 287° (WNW) 10:57:10 437.475
ISS 30 Aug 10:50:43 10:53:55 54° 326° (NW) 10:57:06 145.825
DOVE 4 30 Aug 10:53:37 10:58:20 33° 290° (WNW) 11:02:58 437.250
AUBIESAT-1 30 Aug 10:53:38 10:58:13 51° 69° (ENE) 11:02:48 437.475
QB50P2 30 Aug 10:56:53 10:59:21 16° 67° (ENE) 11:02:01 145.880/145.840
M-CUBED/EXP-1 PRIME 30 Aug 10:56:58 11:01:43 66° 70° (ENE) 11:06:28 437.505
NANOSAT C BR1 30 Aug 10:59:21 11:01:49 16° 67° (ENE) 11:04:29 145.865
CANX-2 30 Aug 11:03:25 11:06:55 25° 290° (WNW) 11:10:19 2200.000
DELFI C3 30 Aug 11:06:05 11:09:53 42° 98° (E) 11:13:40 145.870
YUBILEINY 30 Aug 11:08:42 11:15:56 28° 276° (W) 11:22:49 435.215
TIGRISAT 30 Aug 11:09:50 11:14:25 60° 74° (ENE) 11:19:04 435.000
QB50P1 30 Aug 11:11:26 11:14:38 22° 69° (ENE) 11:17:57 145.935-145.965
DX 1 30 Aug 11:15:13 11:15:58 11° 89° (E) 11:17:02 434.975-435.025
Oscar 11 30 Aug 11:23:15 11:27:34 75° 284° (WNW) 11:31:51 145.826/435.025
ANTELSAT 30 Aug 11:26:03 11:30:44 88° 258° (WSW) 11:35:28 437.575/2403.000
PCSat 30 Aug 11:26:18 11:30:42 25° 49° (NE) 11:35:10 145.827
Cosmos 2504 30 Aug 11:26:31 11:34:57 60° 78° (ENE) 11:42:52 435.465 / 435.565
HUMSAT D 30 Aug 11:26:46 11:30:22 27° 95° (E) 11:33:59 437.325/437.525
SEEDS 30 Aug 11:28:35 11:31:34 19° 292° (WNW) 11:34:25 437.485
UKube-1 30 Aug 11:29:22 11:31:36 14° 91° (E) 11:34:02 .
AISAT 30 Aug 11:30:16 11:30:45 10° 88° (E) 11:31:34 437.250
SO-50 30 Aug 11:36:02 11:41:00 86° 239° (WSW) 11:45:48 436.795
CINEMA 3 30 Aug 11:53:18 11:56:47 19° 294° (WNW) 12:00:02 145.822/145.860
COMPASS 1 30 Aug 11:54:26 11:56:22 13° 294° (WNW) 11:58:06 437.405
Cosmos 2491 30 Aug 11:54:36 12:01:55 28° 292° (WNW) 12:09:01 435.465 / 435.565
CUBEBUG 2 30 Aug 11:54:53 11:59:06 32° 289° (WNW) 12:03:09 437.445
VELOX 1 30 Aug 11:56:35 11:59:53 21° 93° (E) 12:03:17 145.980
50 SAT 30 Aug 11:57:55 12:01:03 24° 95° (E) 12:04:12 437.505
PHONESAT 2.4 30 Aug 11:59:42 12:03:01 52° 201° (SSW) 12:06:21 2401.200-2431.200
ZACube-1 30 Aug 12:02:34 12:06:52 43° 288° (WNW) 12:11:02 437.345
CUSAT 1 30 Aug 12:02:53 12:10:34 71° 79° (ENE) 12:18:49 437.405
UWE-3 30 Aug 12:05:39 12:09:45 31° 289° (WNW) 12:13:42 435.000/436.395/437.385
AAUSAT CUBESAT 2 30 Aug 12:06:50 12:08:07 11° 295° (WNW) 12:09:09 437.432
FUNcube-1 30 Aug 12:08:52 12:13:04 38° 288° (WNW) 12:17:07 145.935
POLYITAN 1 30 Aug 12:10:45 12:15:01 77° 258° (WSW) 12:19:19 437.675
POPSAT HIP 1 30 Aug 12:14:06 12:18:20 72° 258° (WSW) 12:22:37 437.405
HO-68 30 Aug 12:15:42 12:20:26 18° 302° (WNW) 12:24:51 435.675
DUCHIFAT 1 30 Aug 12:16:11 12:20:23 71° 258° (WSW) 12:24:39 145.980
DANDE 30 Aug 12:17:39 12:25:04 65° 78° (ENE) 12:33:32 436.750
UNISAT 6 30 Aug 12:18:03 12:21:57 25° 266° (W) 12:25:50 437.425
ISS 30 Aug 12:29:11 12:30:53 13° 344° (NNW) 12:32:34 145.825
AUBIESAT-1 30 Aug 12:30:02 12:33:10 17° 264° (W) 12:36:08 437.475
QB50P2 30 Aug 12:30:51 12:34:55 43° 262° (W) 12:39:01 145.880/145.840
BUGSAT 1 30 Aug 12:31:39 12:35:42 76° 259° (W) 12:39:48 437.445
NANOSAT C BR1 30 Aug 12:33:17 12:37:19 43° 262° (W) 12:41:23 145.865
M-CUBED/EXP-1 PRIME 30 Aug 12:34:26 12:36:54 13° 266° (W) 12:39:07 437.505
DELFI C3 30 Aug 12:42:25 12:44:37 14° 293° (WNW) 12:46:38 145.870
ESTCUBE 1 30 Aug 12:43:45 12:48:08 52° 100° (E) 12:52:32 437.505/2401.250
QB50P1 30 Aug 12:46:35 12:50:20 30° 264° (W) 12:54:05 145.935-145.965
DX 1 30 Aug 12:48:22 12:52:43 64° 286° (WNW) 12:57:03 434.975-435.025
TIGRISAT 30 Aug 12:49:19 12:51:37 13° 271° (W) 12:53:40 435.000
HUMSAT D 30 Aug 13:02:34 13:06:00 23° 291° (WNW) 13:09:18 437.325/437.525
AISAT 30 Aug 13:03:23 13:07:52 68° 285° (WNW) 13:12:18 437.250
UKube-1 30 Aug 13:03:51 13:08:02 47° 287° (WNW) 13:12:12 .
PCSat 30 Aug 13:09:11 13:14:24 48° 247° (WSW) 13:19:34 145.827
CUBEBUG 1 30 Aug 13:09:17 13:13:43 83° 102° (ESE) 13:18:09 437.445
SPROUT 30 Aug 13:12:01 13:15:38 26° 95° (E) 13:19:18 437.525
Cosmos 2504 30 Aug 13:19:43 13:26:36 27° 277° (W) 13:32:55 435.465 / 435.565
Oscar 19 30 Aug 13:22:25 13:26:36 26° 68° (ENE) 13:30:55 437.125/150
50 SAT 30 Aug 13:32:25 13:35:29 22° 290° (WNW) 13:38:26 437.505
VELOX 1 30 Aug 13:32:28 13:36:31 34° 289° (WNW) 13:40:32 145.980
PHONESAT 2.4 30 Aug 13:39:03 13:40:27 12° 215° (SW) 13:41:47 2401.200-2431.200
CUSAT 1 30 Aug 13:46:33 13:52:41 25° 273° (W) 13:58:48 437.405
Gurwin Techsat 1B 30 Aug 13:51:22 13:54:23 16° 63° (ENE) 13:57:37 435.225
GONETS M04 30 Aug 13:58:19 14:05:32 29° 68° (ENE) 14:13:01
DANDE 30 Aug 14:01:40 14:07:56 27° 271° (W) 14:14:30 436.750
JAS-2 30 Aug 14:09:51 14:14:43 19° 59° (ENE) 14:19:58 435.910
ITAMSAT 1 30 Aug 14:17:57 14:21:51 23° 66° (ENE) 14:25:53 435.822/435.867
ESTCUBE 1 30 Aug 14:22:00 14:24:37 15° 294° (WNW) 14:27:03 437.505/2401.250
TISAT 1 30 Aug 14:22:10 14:26:28 88° 288° (WNW) 14:30:44 437.305
BEESAT 30 Aug 14:26:06 14:28:51 16° 91° (E) 14:31:49 436.000
AO-7 30 Aug 14:30:35 14:34:28 15° 50° (NE) 14:38:47 29.400- 29.500
SPROUT 30 Aug 14:48:00 14:51:39 26° 290° (WNW) 14:55:13 437.525
SWISSCUBE 30 Aug 14:50:42 14:54:54 31° 96° (E) 14:59:09 437.505
Oscar 19 30 Aug 15:01:04 15:05:49 36° 263° (W) 15:10:34 437.125/150
BEESAT 3 30 Aug 15:12:55 15:15:07 15° 111° (ESE) 15:17:30 437.485
BEESAT 2 30 Aug 15:22:43 15:24:47 14° 110° (ESE) 15:27:04 435.950
ITUPSAT 1 30 Aug 15:28:01 15:32:47 70° 102° (ESE) 15:37:31 437.325
Gurwin Techsat 1B 30 Aug 15:28:36 15:33:52 66° 258° (WSW) 15:39:11 435.225
JUGNU 30 Aug 15:39:52 15:40:49 10° 176° (S) 15:41:48 437.505
ISS 30 Aug 15:43:22 15:45:49 19° 24° (NNE) 15:48:17 145.825
STARS 30 Aug 15:50:34 15:50:39 10° 88° (E) 15:51:03 437.465
JAS-2 30 Aug 15:51:10 15:58:46 87° 76° (ENE) 16:06:43 435.910
GONETS M04 30 Aug 15:54:24 16:03:01 61° 268° (W) 16:11:37
Cosmos 2499 30 Aug 15:55:16 16:03:19 41° 72° (ENE) 16:10:59 435.465 / 435.565
ITAMSAT 1 30 Aug 15:56:13 16:01:07 42° 262° (W) 16:06:01 435.822/435.867
KKS-1 30 Aug 16:02:05 16:05:47 25° 95° (E) 16:09:34 437.445
BEESAT 30 Aug 16:02:26 16:07:03 50° 287° (WNW) 16:11:37 436.000
HORYU 2 30 Aug 16:10:12 16:14:11 33° 70° (ENE) 16:18:14 437.375
AO-7 30 Aug 16:17:41 16:25:54 67° 69° (ENE) 16:34:10 29.400- 29.500
SWISSCUBE 30 Aug 16:28:42 16:32:39 26° 292° (WNW) 16:36:30 437.505
RS-15 30 Aug 16:46:02 16:56:16 51° 111° (ESE) 17:06:59 29.354- 29.394
BEESAT 3 30 Aug 16:48:46 16:52:41 46° 305° (NW) 16:56:39 437.485
BEESAT 2 30 Aug 16:58:29 17:02:28 49° 305° (NW) 17:06:28 435.950
ITUPSAT 1 30 Aug 17:08:00 17:10:09 13° 297° (WNW) 17:12:04 437.325
ISS 30 Aug 17:19:15 17:22:28 62° 221° (SW) 17:25:40 145.825
STARS 30 Aug 17:23:12 17:27:39 68° 285° (WNW) 17:32:02 437.465
AIST 2 30 Aug 17:24:07 17:28:17 60° 118° (ESE) 17:32:29 435.215
KKS-1 30 Aug 17:38:31 17:42:24 28° 290° (WNW) 17:46:12 437.445
MOZHAYETS 4 30 Aug 17:39:33 17:43:52 41° 98° (E) 17:48:11
JAS-2 30 Aug 17:39:46 17:44:50 18° 275° (W) 17:49:36 435.910
HORYU 2 30 Aug 17:47:20 17:50:54 22° 266° (W) 17:54:20 437.375
Cosmos 2499 30 Aug 17:48:32 17:56:31 41° 272° (W) 18:03:53 435.465 / 435.565
CUTE-I 30 Aug 18:09:43 18:13:55 25° 67° (ENE) 18:18:15 437.470
AO-7 30 Aug 18:12:37 18:19:23 26° 267° (W) 18:25:51 29.400- 29.500
SRMSAT 30 Aug 18:34:38 18:35:59 11° 182° (S) 18:37:21 437.500
RS-15 30 Aug 18:58:18 19:08:50 48° 315° (NW) 19:19:44 29.354- 29.394
Cubesat XI-IV 30 Aug 19:02:56 19:08:15 78° 75° (ENE) 19:13:36 437.490
AIST 2 30 Aug 19:04:35 19:07:15 16° 316° (NW) 19:09:50 435.215
O/OREOS (USA 219) 30 Aug 19:09:35 19:12:14 16° 101° (E) 19:15:04 437.305
HO-68 30 Aug 19:12:40 19:13:43 10° 52° (NE) 19:15:13 435.675
MOZHAYETS 4 30 Aug 19:17:37 19:20:48 18° 293° (WNW) 19:23:51
BRITE-PL 30 Aug 19:25:33 19:28:25 18° 66° (ENE) 19:31:32 437.365/2234.400
CUBESAT XI-V 30 Aug 19:29:09 19:33:40 53° 99° (E) 19:38:14 437.345
CUTE-I 30 Aug 19:48:51 19:53:49 40° 262° (W) 19:58:47 437.470
GOMX 1 30 Aug 20:00:44 20:04:19 25° 68° (ENE) 20:08:12 467.674
CUTE 1.7 + AOD 2 30 Aug 20:08:04 20:09:13 11° 65° (ENE) 20:10:36 437.475
Cosmos 2491 30 Aug 20:08:07 20:15:15 28° 68° (ENE) 20:22:38 435.465 / 435.565
CANX-2 30 Aug 20:20:07 20:22:52 17° 68° (ENE) 20:25:46 2200.000
YUBILEINY 30 Aug 20:20:44 20:23:03 12° 77° (ENE) 20:26:09 435.215
DOVE 4 30 Aug 20:20:56 20:24:35 25° 68° (ENE) 20:28:32 437.250
STRAND 1 30 Aug 20:22:52 20:27:47 47° 99° (E) 20:32:42 437.568
PRISM 30 Aug 20:31:40 20:35:30 38° 98° (E) 20:39:23 437.425
AIST 1 30 Aug 20:38:29 20:42:49 72° 264° (W) 20:47:08
SEEDS 30 Aug 20:43:30 20:46:44 22° 70° (ENE) 20:50:04 437.485
O/OREOS (USA 219) 30 Aug 20:46:57 20:51:18 45° 296° (WNW) 20:55:42 437.305
Cubesat XI-IV 30 Aug 20:47:00 20:49:04 12° 272° (W) 20:50:46 437.490
HO-68 30 Aug 20:53:10 21:00:08 58° 70° (ENE) 21:07:10 435.675
BRITE-PL 30 Aug 21:02:34 21:06:37 40° 263° (W) 21:10:57 437.365/2234.400
COMPASS 1 30 Aug 21:07:09 21:10:51 31° 71° (ENE) 21:14:35 437.405
CUBESAT XI-V 30 Aug 21:07:56 21:10:44 16° 294° (WNW) 21:13:21 437.345
CINEMA 3 30 Aug 21:15:30 21:19:49 39° 71° (ENE) 21:24:21 145.822/145.860
CUBEBUG 2 30 Aug 21:16:08 21:19:15 19° 67° (ENE) 21:22:36 437.445
RS-15 30 Aug 21:17:24 21:25:14 20° 346° (NNW) 21:33:05 29.354- 29.394
AAUSAT CUBESAT 2 30 Aug 21:18:25 21:22:13 34° 72° (ENE) 21:26:03 437.432
ZACube-1 30 Aug 21:23:21 21:25:15 13° 65° (ENE) 21:27:23 437.345
UWE-3 30 Aug 21:25:57 21:29:01 18° 67° (ENE) 21:32:16 435.000/436.395/437.385
FUNcube-1 30 Aug 21:28:56 21:31:14 14° 65° (ENE) 21:33:44 145.935
GOMX 1 30 Aug 21:38:25 21:42:21 30° 266° (W) 21:46:29 467.674
CUTE 1.7 + AOD 2 30 Aug 21:40:23 21:44:38 65° 259° (W) 21:48:54 437.475
DELFI C3 30 Aug 21:52:23 21:55:33 23° 70° (ENE) 21:58:48 145.870
CANX-2 30 Aug 21:54:28 21:58:31 39° 262° (W) 22:02:33 2200.000
DOVE 4 30 Aug 21:58:07 22:02:12 32° 266° (W) 22:06:29 437.250
STRAND 1 30 Aug 22:02:56 22:06:41 20° 294° (WNW) 22:10:17 437.568
Cosmos 2491 30 Aug 22:04:11 22:12:47 61° 268° (W) 22:21:20 435.465 / 435.565
PRISM 30 Aug 22:08:02 22:10:40 16° 293° (WNW) 22:13:10 437.425
YUBILEINY 30 Aug 22:09:49 22:18:30 72° 94° (E) 22:27:18 435.215
Oscar 11 30 Aug 22:16:31 22:20:51 72° 75° (ENE) 22:25:12 145.826/435.025
HUMSAT D 30 Aug 22:17:54 22:20:47 18° 68° (ENE) 22:23:50 437.325/437.525
SEEDS 30 Aug 22:18:37 22:22:23 29° 265° (W) 22:26:06 437.485
UKube-1 30 Aug 22:24:28 22:25:46 11° 64° (ENE) 22:27:18 .
50 SAT 30 Aug 22:41:38 22:43:19 13° 67° (ENE) 22:45:11 437.505
HO-68 30 Aug 22:42:31 22:48:20 25° 267° (W) 22:53:57 435.675
COMPASS 1 30 Aug 22:43:21 22:46:33 20° 267° (W) 22:49:39 437.405
CUBEBUG 2 30 Aug 22:51:12 22:55:36 44° 262° (W) 23:00:08 437.445
CINEMA 3 30 Aug 22:53:43 22:57:12 20° 269° (W) 23:00:41 145.822/145.860
VELOX 1 30 Aug 22:53:47 22:56:32 17° 66° (ENE) 22:59:26 145.980
AAUSAT CUBESAT 2 30 Aug 22:54:59 22:57:56 18° 268° (W) 23:00:45 437.432
ZACube-1 30 Aug 22:56:36 23:01:05 65° 260° (W) 23:05:40 437.345
UWE-3 30 Aug 23:00:51 23:05:13 44° 262° (W) 23:09:41 435.000/436.395/437.385
FUNcube-1 30 Aug 23:02:38 23:07:04 57° 260° (W) 23:11:37 145.935
TIGRISAT 30 Aug 23:04:38 23:06:46 13° 89° (E) 23:09:07 435.000
ANTELSAT 30 Aug 23:20:10 23:23:35 21° 92° (E) 23:27:03 437.575/2403.000
DELFI C3 30 Aug 23:27:06 23:30:31 25° 265° (W) 23:33:54 145.870
RS-15 30 Aug 23:34:58 23:43:29 23° 21° (NNE) 23:52:33 29.354- 29.394
ESTCUBE 1 30 Aug 23:42:15 23:46:27 41° 72° (ENE) 23:50:42 437.505/2401.250
DX 1 30 Aug 23:42:33 23:46:52 86° 253° (WSW) 23:51:14 434.975-435.025
HUMSAT D 30 Aug 23:52:13 23:56:16 38° 263° (W) 00:00:19 437.325/437.525
Cosmos 2504 30 Aug 23:54:35 00:02:05 46° 89° (E) 00:10:07 435.465 / 435.565
UKube-1 30 Aug 23:57:08 00:01:24 65° 258° (WSW) 00:05:42 .
POLYITAN 1 30 Aug 23:58:07 00:01:08 19° 92° (E) 00:04:16 437.675
AISAT 30 Aug 23:59:42 00:04:06 88° 257° (WSW) 00:08:33 437.250
POPSAT HIP 1 31 Aug 00:01:08 00:04:15 20° 93° (E) 00:07:28 437.405
DUCHIFAT 1 31 Aug 00:02:41 00:05:46 20° 93° (E) 00:08:59 145.980
CUBEBUG 1 31 Aug 00:04:10 00:08:23 58° 74° (ENE) 00:12:39 437.445
SPROUT 31 Aug 00:05:45 00:08:37 18° 68° (ENE) 00:11:39 437.525
YUBILEINY 31 Aug 00:09:23 00:16:18 24° 295° (WNW) 00:22:56 435.215
UNISAT 6 31 Aug 00:10:17 00:14:53 77° 102° (ESE) 00:19:21 437.425
AUBIESAT-1 31 Aug 00:10:30 00:14:13 40° 102° (ESE) 00:17:40 437.475
50 SAT 31 Aug 00:13:38 00:17:28 47° 261° (W) 00:21:19 437.505
M-CUBED/EXP-1 PRIME 31 Aug 00:14:32 00:18:29 57° 104° (ESE) 00:22:05 437.505
BUGSAT 1 31 Aug 00:15:47 00:18:33 17° 92° (E) 00:21:28 437.445
QB50P2 31 Aug 00:17:14 00:21:04 31° 96° (E) 00:24:55 145.880/145.840
NANOSAT C BR1 31 Aug 00:19:13 00:23:02 31° 96° (E) 00:26:52 145.865
VELOX 1 31 Aug 00:28:35 00:32:46 43° 261° (W) 00:36:59 145.980
QB50P1 31 Aug 00:32:09 00:36:17 45° 99° (E) 00:40:24 145.935-145.965
TIGRISAT 31 Aug 00:39:28 00:43:57 53° 286° (WNW) 00:48:18 435.000
ANTELSAT 31 Aug 00:56:18 01:00:28 34° 289° (WNW) 01:04:29 437.575/2403.000
BEESAT 3 31 Aug 01:07:58 01:12:00 71° 58° (ENE) 01:15:57 437.485
CUSAT 1 31 Aug 01:09:37 01:13:13 69° 96° (E) 01:18:05 437.405
TISAT 1 31 Aug 01:12:53 01:17:00 58° 74° (ENE) 01:21:09 437.305
BEESAT 2 31 Aug 01:18:19 01:22:22 68° 57° (ENE) 01:26:21 435.950
ESTCUBE 1 31 Aug 01:20:32 01:23:33 17° 268° (W) 01:26:24 437.505/2401.250
DANDE 31 Aug 01:29:52 01:33:05 65° 96° (E) 01:37:21 436.750
BEESAT 31 Aug 01:31:49 01:34:48 17° 66° (ENE) 01:37:58 436.000
POLYITAN 1 31 Aug 01:33:13 01:37:10 35° 288° (WNW) 01:41:02 437.675
POPSAT HIP 1 31 Aug 01:36:19 01:40:12 33° 289° (WNW) 01:44:01 437.405
DUCHIFAT 1 31 Aug 01:37:48 01:41:40 33° 289° (WNW) 01:45:28 145.980
SPROUT 31 Aug 01:40:27 01:44:27 37° 263° (W) 01:48:27 437.525
CUBEBUG 1 31 Aug 01:43:47 01:45:12 11° 271° (W) 01:46:21 437.445
AUBIESAT-1 31 Aug 01:46:19 01:48:34 14° 300° (WNW) 01:50:35 437.475
Cosmos 2504 31 Aug 01:47:06 01:54:30 37° 289° (WNW) 02:02:09 435.465 / 435.565
AIST 2 31 Aug 01:47:06 01:50:45 28° 50° (NE) 01:54:22 435.215
RS-15 31 Aug 01:47:39 01:59:17 59° 50° (NE) 02:11:22 29.354- 29.394
SO-50 31 Aug 01:49:11 01:53:36 41° 115° (ESE) 01:58:13 436.795
UNISAT 6 31 Aug 01:49:52 01:51:03 11° 297° (WNW) 01:51:58 437.425
BUGSAT 1 31 Aug 01:50:14 01:54:11 37° 288° (WNW) 01:58:06 437.445
M-CUBED/EXP-1 PRIME 31 Aug 01:51:19 01:52:43 11° 302° (WNW) 01:53:55 437.505
QB50P2 31 Aug 01:53:29 01:56:48 21° 291° (WNW) 01:59:59 145.880/145.840
NANOSAT C BR1 31 Aug 01:55:23 01:58:42 21° 291° (WNW) 02:01:52 145.865
SWISSCUBE 31 Aug 01:56:13 02:00:26 32° 70° (ENE) 02:04:41 437.505
PCSat 31 Aug 02:07:17 02:11:36 25° 108° (ESE) 02:16:02 145.827
QB50P1 31 Aug 02:09:10 02:11:48 15° 293° (WNW) 02:14:15 145.935-145.965
ITUPSAT 1 31 Aug 02:33:34 02:38:19 71° 75° (ENE) 02:43:06 437.325
TISAT 1 31 Aug 02:52:04 02:53:12 11° 271° (W) 02:54:05 437.305
GONETS M04 31 Aug 02:58:24 03:05:43 33° 86° (E) 03:13:17
KKS-1 31 Aug 02:59:35 03:02:53 21° 68° (ENE) 03:06:18 437.445
JAS-2 31 Aug 03:06:30 03:09:02 13° 82° (E) 03:11:56 435.910
BEESAT 31 Aug 03:07:40 03:12:18 50° 260° (W) 03:16:56 436.000
Oscar 19 31 Aug 03:13:09 03:18:23 87° 101° (E) 03:23:35 437.125/150
AIST 2 31 Aug 03:25:44 03:29:14 26° 247° (WSW) 03:32:37 435.215
SO-50 31 Aug 03:30:14 03:34:18 26° 313° (NW) 03:38:25 436.795
SWISSCUBE 31 Aug 03:34:23 03:38:19 25° 266° (W) 03:42:10 437.505
Gurwin Techsat 1B 31 Aug 03:45:55 03:51:08 55° 100° (E) 03:56:20 435.225
PCSat 31 Aug 03:49:40 03:54:48 42° 305° (NW) 03:59:57 145.827
RS-15 31 Aug 04:00:35 04:11:34 43° 251° (WSW) 04:22:32 29.354- 29.394
ITAMSAT 1 31 Aug 04:09:44 04:14:56 75° 103° (ESE) 04:20:07 435.822/435.867
ITUPSAT 1 31 Aug 04:15:22 04:16:48 11° 272° (W) 04:17:55 437.325
STARS 31 Aug 04:18:35 04:23:00 90° 254° (WSW) 04:27:27 437.465
VERMONT LUNAR 31 Aug 04:19:31 04:21:54 22° 152° (SSE) 04:24:18 437.305
AO-7 31 Aug 04:21:49 04:27:44 22° 91° (E) 04:33:59 29.400- 29.500
Cosmos 2499 31 Aug 04:29:53 04:37:04 34° 85° (E) 04:44:46 435.465 / 435.565
KKS-1 31 Aug 04:35:15 04:39:19 34° 263° (W) 04:43:23 437.445
MOZHAYETS 4 31 Aug 04:40:22 04:44:32 35° 71° (ENE) 04:48:44
JAS-2 31 Aug 04:48:22 04:55:30 88° 102° (ESE) 05:01:42 435.910
GONETS M04 31 Aug 04:53:54 05:02:17 50° 284° (WNW) 05:10:41
Oscar 19 31 Aug 04:55:10 04:57:05 12° 299° (WNW) 04:58:42 437.125/150
